Weather Roundup
Issued by NWS

Home | Current Version | Previous Version | Text Only | Print | Product List | Glossary On
Versions: 1 2 3 4 5 6 7 8 9 10 11 12 13 14 15 16 17 18 19 20 21 22 23 24 25 26 27 28 29 30 31 32 33 34 35 36 37 38 39 40 41 42 43 44 45 46 47 48 49 50
000
NZUS93 KARX 240759
HRRWXR

CURRENT HOURLY OBSERVATIONS ACROSS
MUCH OF THE UPPER MISSISSIPPI VALLEY
NATIONAL WEATHER SERVICE LA CROSSE WI
300 AM CDT TUE MAY 24 2016


...SOUTHEAST MINNESOTA...


CITY           SKY/WX    TMP DP  RH WIND       PRES   REMARKS
ROCHESTER      LGT RAIN  65  62  90 S10       29.84F
ROCHESTER/MAYO CLOUDY    65  63  93 S5        29.84S
WINONA         HVY RAIN  68  63  83 W6        29.84F
AUSTIN         CLOUDY    63  59  88 S2        29.84F
ALBERT LEA     LGT RAIN  64  61  88 S7        29.83S
DODGE CENTER   CLOUDY    64  59  82 S14       29.82F
PRESTON        CLOUDY    63  59  88 CALM      29.86F
OWATONNA       PTCLDY    64  57  77 S9        29.82S
FARIBAULT      CLOUDY    64  61  88 S5        29.81F
$$

...ELSEWHERE IN MINNESOTA...


CITY           SKY/WX    TMP DP  RH WIND       PRES   REMARKS
MINNEAPOLIS    CLOUDY    68  60  75 SW7       29.80S
INTNL FALLS    FOG       50  50 100 CALM      29.76R VSB 1
DULUTH         MOCLDY    59  58  96 NE5       29.81R
RED WING       CLOUDY    64  63  94 SE3       29.81R
REDWOOD FALLS  CLOUDY    61  59  93 S7        29.77S
MANKATO        MOCLDY    64  57  77 S6        29.80F
WORTHINGTON    CLOUDY    63  61  93 SW13      29.80F
FAIRMONT       CLOUDY    63  59  88 S10       29.80S
$$

...SOUTHWEST WISCONSIN...


CITY           SKY/WX    TMP DP  RH WIND       PRES   REMARKS
LA CROSSE      CLOUDY    68  58  70 SE7       29.84S
PRAIRIE DU CHI MOCLDY    67  50  54 CALM      29.86F
BOSCOBEL       CLOUDY    58  52  80 CALM      29.87F
LONE ROCK      NOT AVBL
PLATTEVILLE    PTCLDY    65  49  57 S7        29.91S
FORT MC COY    CLOUDY    62  56  82 CALM      29.87S
MAUSTON-NEW LI PTSUNNY   70  48  45 S5        29.87S
VIROQUA        PTSUNNY   67  49  52 S9        29.88F
WIS DELLS      PTCLDY    62  46  56 SW6       29.89S
$$

...ELSEWHERE IN WISCONSIN...


CITY           SKY/WX    TMP DP  RH WIND       PRES   REMARKS
MILWAUKEE      PTCLDY    60  41  49 SW6       29.92S
MADISON        CLOUDY    60  49  66 S3        29.91R
GREEN BAY      CLEAR     62  42  47 S8        29.89R
EAU CLAIRE     NOT AVBL
BLACK RVR FLS  FAIR      60  55  82 CALM      29.85S
MEDFORD        CLOUDY    61  61 100 W3        29.88S THUNDER
WAUSAU         MOCLDY    64  51  62 CALM      29.86S
WIS RAPIDS     MOCLDY    60  48  64 CALM      29.89R
MARSHFIELD     LGT RAIN  62  56  80 SE3       29.88R
RICE LAKE      CLOUDY    64  58  83 CALM      29.83F
$$

...NORTHEAST IOWA...


CITY           SKY/WX    TMP DP  RH WIND       PRES   REMARKS
WATERLOO       CLOUDY    66  53  63 S8        29.86S
DUBUQUE        PTCLDY    61  50  67 S8        29.90F
DECORAH        CLOUDY    68  54  60 S8        29.86S
MASON CITY     PTCLDY    63  60  90 S8        29.84F
CHARLES CITY   PTCLDY    64  61  88 S7        29.86S
OELWEIN        CLOUDY    64  54  68 S9        29.88S
$$

...ELSEWHERE IN IOWA...


CITY           SKY/WX    TMP DP  RH WIND       PRES   REMARKS
DES MOINES     CLOUDY    66  62  87 W5        29.90R
IOWA CITY      CLOUDY    64  54  69 CALM      29.90F
FORT DODGE     CLOUDY    64  57  77 S18G25    29.85R
MARSHALLTOWN   LGT RAIN  62  55  77 SW6       29.88R
CEDAR RAPIDS   CLOUDY    64  54  69 S6        29.88S
$$

...NORTHERN ILLINOIS...


CITY           SKY/WX    TMP DP  RH WIND       PRES   REMARKS
CHICAGO-OHARE  MOCLDY    67  44  43 S12       29.95R
CHICAGO-MIDWAY CLOUDY    66  43  43 SW7       29.96R
MOLINE         PTCLDY    61  49  64 CALM      29.91S
ROCKFORD       CLOUDY    62  48  60 CALM      29.95S
PEORIA         CLOUDY    64  51  62 S6        29.95F
$$

NOTE: "FAIR" INDICATES FEW OR NO CLOUDS BELOW 12,000 FEET WITH NO
SIGNIFICANT WEATHER AND/OR OBSTRUCTIONS TO VISIBILITY. WIND
SPEEDS ARE IN MILES-PER-HOUR.




USA.gov is the U.S. government's official web portal to all federal, state and local government web resources and services.